Wind_Speed
6 6 7 8 9 11 12 15 17 19 21 23 23 24 25 26 29 31 32 34 35 37 38 40 42 42 43 44 44 43 42 42 41 40 40 41 41 40 40 41 41 41 41 40
6 7 8 9 10 11 14 16 19 21 23 24 24 25 26 28 30 32 33 35 36 38 40 41 42 43 43 44 43 43 42 42 41 40 40 41 41 40 40 40 40 39 39 38
7 8 9 10 10 11 14 17 19 22 23 24 25 26 27 28 30 32 34 35 37 39 41 42 43 43 43 43 43 43 43 42 41 40 40 40 40 40 39 39 38 37 37 36
8 9 10 9 10 12 15 17 19 21 23 25 26 26 27 29 31 33 34 36 38 40 41 42 43 43 43 44 44 43 43 42 41 40 40 40 39 39 38 37 36 35 34 34
10 11 11 11 11 14 17 19 20 22 24 25 26 27 28 30 32 33 35 37 39 40 42 42 43 43 43 43 44 43 42 42 41 40 39 39 39 38 37 36 36 35 34 33
11 12 12 12 14 16 19 20 22 23 24 25 27 28 30 31 32 34 35 37 39 41 41 42 42 43 43 43 43 43 42 42 41 39 39 39 38 38 37 35 34 33 32 32
12 14 14 15 17 18 20 23 23 23 24 26 27 28 30 31 32 34 36 38 40 41 41 42 42 43 43 43 43 43 43 41 40 39 39 38 38 37 35 34 33 32 31 29
16 17 18 19 20 20 21 22 23 24 24 26 27 28 30 31 33 35 36 39 40 41 41 41 42 43 43 43 43 43 42 41 40 39 38 38 37 36 35 34 33 31 29 27
20 21 21 21 21 21 21 22 22 23 24 25 27 28 30 31 33 35 37 39 40 41 41 41 42 43 43 43 42 42 42 40 40 39 38 37 36 35 35 35 33 30 27 25
23 23 22 21 21 21 21 21 22 23 24 25 27 29 30 32 34 36 38 39 40 40 41 41 42 43 43 43 42 42 41 40 39 39 38 37 36 35 34 34 32 29 26 24
24 23 23 22 22 22 22 22 23 23 25 27 28 30 31 33 34 36 38 40 40 40 41 41 42 42 43 43 42 42 41 40 39 38 37 36 35 34 34 33 31 29 27 24
25 24 24 24 24 24 25 25 25 26 27 29 30 31 33 34 36 37 39 40 40 40 41 41 41 42 42 43 42 41 40 39 38 37 36 35 34 33 33 32 31 29 27 24
25 25 25 25 26 26 27 27 27 27 28 30 31 33 34 35 37 38 39 40 40 40 40 41 41 41 42 42 42 42 40 38 37 37 35 34 33 32 31 31 30 29 27 23
25 26 26 26 27 28 28 28 29 29 30 31 32 33 35 36 38 39 40 40 40 40 41 41 41 41 42 42 42 41 39 38 36 36 35 34 32 30 30 30 30 28 25 23
25 26 27 27 28 28 29 30 30 31 31 33 34 35 36 38 39 40 40 41 42 42 42 42 41 41 42 42 41 40 38 37 35 34 34 33 31 30 30 30 29 27 25 23
26 26 27 28 28 30 31 32 32 33 33 35 36 37 38 39 40 40 41 42 42 43 42 41 41 41 41 41 40 39 37 36 34 33 32 32 30 29 28 29 28 27 25 23
27 28 29 30 31 32 33 34 34 35 36 37 38 39 41 42 42 41 42 43 43 44 43 42 41 41 41 40 39 38 36 34 33 32 31 30 29 27 27 27 27 25 24 23
30 31 32 33 34 35 36 37 37 37 38 39 40 42 43 44 43 43 44 44 45 44 43 42 41 40 40 39 37 36 35 33 31 30 30 29 28 26 25 25 25 24 23 21
33 35 36 37 38 38 38 39 40 40 41 42 42 43 44 45 45 45 45 45 45 45 43 42 41 40 38 37 36 34 33 32 30 29 28 28 27 25 24 24 23 23 22 20
37 38 39 41 41 41 42 42 43 44 44 45 46 46 46 46 47 46 47 46 46 45 43 43 41 39 37 36 34 33 32 30 28 27 27 26 25 24 23 22 22 21 21 20
40 42 43 44 44 44 45 47 48 48 49 49 49 49 48 48 48 48 48 47 46 44 43 41 39 37 35 34 33 32 31 29 27 25 24 24 23 22 21 21 20 20 19 19
43 44 45 46 48 48 49 51 52 51 51 51 51 51 50 50 49 49 48 47 45 43 42 40 38 36 34 33 32 31 29 27 25 24 22 21 20 19 19 19 19 18 18 17
46 48 49 51 52 52 53 53 53 53 52 52 52 51 50 49 48 47 45 44 43 41 39 38 36 34 33 31 30 28 27 25 24 22 20 19 18 17 17 17 17 16 16 16
49 50 52 53 54 55 55 55 55 55 55 54 53 51 49 48 46 44 43 42 41 38 37 36 34 32 30 29 27 26 25 24 22 20 18 17 16 14 13 14 14 14 14 14
53 54 54 55 56 56 57 56 56 55 54 53 51 49 47 46 44 42 41 40 39 37 35 34 32 30 28 27 26 25 24 22 20 19 17 15 14 12 11 11 11 12 12 12
57 57 57 57 57 57 56 55 54 53 52 50 48 47 45 43 41 40 39 37 36 35 33 32 30 28 27 26 25 24 22 20 19 17 15 14 12 11 9 8 8 8 9 10
59 58 58 57 56 55 54 53 52 50 48 46 45 43 41 40 39 38 36 35 34 33 32 30 29 27 25 24 23 22 21 19 18 16 14 13 11 9 7 6 6 6 6 7
Wind_Direction
309 303 309 316 318 326 330 333 337 343 345 345 344 341 339 336 334 332 332 331 329 329 330 330 330 330 329 329 328 327 325 323 322 320 318 316 313 311 309 307 304 302 298 294
298 295 300 308 314 319 324 329 335 340 339 337 336 336 336 334 331 330 329 329 330 330 331 331 331 330 330 330 329 329 327 326 324 322 320 319 317 314 313 310 308 305 301 296
298 297 301 298 301 310 316 324 331 331 331 330 330 333 333 330 328 328 329 330 331 331 332 332 331 331 331 331 331 330 329 328 326 324 323 322 321 319 317 314 311 308 304 299
306 300 297 300 303 308 315 321 324 324 325 326 327 329 329 328 328 329 329 330 331 331 332 332 332 332 332 332 332 332 331 329 328 327 326 325 325 324 321 318 315 311 307 303
312 309 312 319 318 314 315 320 322 323 323 324 326 327 329 328 328 328 329 330 331 332 332 333 334 334 334 333 334 333 332 331 330 329 329 329 328 327 325 322 318 314 310 306
312 315 319 325 317 315 316 320 319 321 322 324 326 327 328 327 327 328 329 331 332 333 333 334 335 335 335 335 336 335 334 333 332 331 332 332 331 329 328 326 323 319 315 311
309 314 318 319 320 320 320 321 319 321 323 324 323 324 325 326 327 329 330 331 332 333 334 335 336 337 337 337 337 337 336 335 334 334 334 334 334 334 332 330 327 324 321 317
315 315 315 316 320 322 321 321 320 321 322 321 322 323 325 326 327 328 329 331 332 334 334 335 337 337 338 338 339 339 338 337 337 336 336 336 337 337 336 335 333 329 325 322
307 307 310 315 318 318 318 318 318 319 319 320 321 323 324 325 326 328 329 331 332 333 334 336 337 338 339 339 340 340 340 339 338 338 338 339 339 339 339 339 338 335 332 328
299 303 309 313 314 314 315 316 316 318 319 320 321 323 324 325 326 328 330 330 332 333 335 336 337 339 340 340 341 341 341 341 340 340 341 341 342 342 342 342 343 341 338 335
295 303 307 309 311 312 314 316 317 319 319 320 321 322 323 324 326 328 329 330 331 333 335 336 337 339 340 341 341 342 342 341 342 342 343 344 344 345 345 345 345 345 343 340
294 300 302 306 308 310 313 315 316 317 318 318 319 320 322 323 325 326 328 330 331 333 335 336 337 339 340 342 342 342 342 342 343 343 344 345 347 347 348 347 348 348 348 346
293 297 300 303 305 307 309 311 312 314 315 315 316 317 319 322 324 325 326 328 330 332 334 336 337 339 340 342 342 342 342 342 343 345 346 346 348 349 350 350 351 351 352 352
290 293 296 298 299 301 304 306 308 310 311 311 313 315 317 319 321 324 326 327 329 330 332 334 336 338 339 340 341 341 342 342 343 345 346 347 350 351 352 353 353 354 354 353
286 289 291 293 294 297 300 303 305 308 309 310 312 314 315 316 319 323 324 326 328 329 331 332 335 336 337 338 339 341 341 342 343 344 346 348 351 352 353 355 356 356 356 356
284 286 289 291 293 296 299 302 305 308 309 311 312 313 314 315 318 320 322 324 326 328 329 330 332 333 335 337 338 339 340 341 343 344 346 348 351 352 354 356 358 359 0 1
282 284 287 290 293 296 299 301 304 306 308 310 311 312 314 316 316 317 319 321 323 325 326 327 329 331 332 334 335 337 339 340 341 343 345 347 350 352 354 356 358 360 2 4
283 284 287 290 293 295 297 300 302 303 305 307 308 309 310 313 314 315 317 318 320 321 323 324 325 328 330 331 333 335 337 338 340 342 344 346 349 351 353 356 358 1 3 5
282 284 286 289 290 292 295 298 299 300 302 304 305 306 307 309 311 312 313 315 316 317 319 321 323 325 326 329 331 333 335 336 338 340 342 344 348 350 353 356 359 2 4 8
280 282 284 286 288 289 291 293 296 297 299 300 301 301 302 305 307 309 310 310 312 314 315 317 319 321 323 326 328 330 332 334 336 338 340 343 346 349 352 356 359 2 5 9
280 281 282 284 285 286 287 290 292 293 294 296 297 298 300 302 304 305 306 307 308 310 312 314 316 318 319 321 324 326 329 331 333 335 338 341 345 348 352 356 359 2 6 11
279 279 279 280 282 283 285 287 289 290 292 293 294 296 298 300 301 302 303 304 304 306 308 310 311 313 315 317 319 322 325 327 330 332 335 338 342 347 352 357 1 5 8 13
279 279 278 279 281 282 283 284 286 287 288 289 291 293 295 296 298 299 299 300 301 302 304 305 307 309 311 314 316 319 321 324 326 329 332 335 338 344 352 358 3 8 13 17
278 278 278 279 279 280 282 283 284 285 286 288 289 291 293 294 295 296 296 297 298 298 299 301 303 305 307 310 313 316 318 320 322 324 327 331 334 338 348 357 3 9 13 18
278 278 278 278 279 280 281 282 284 285 286 288 289 290 291 291 292 292 292 292 293 293 294 297 300 302 304 307 309 311 313 315 317 320 322 325 327 331 341 353 0 7 15 20
280 280 280 281 281 282 282 283 284 285 285 286 286 286 287 288 288 289 289 287 287 289 290 291 293 297 300 303 305 306 307 309 311 314 315 317 319 323 330 345 356 0 8 18
282 282 282 283 283 283 284 284 284 284 284 284 284 283 283 284 284 285 285 285 284 284 284 286 288 291 294 297 299 300 301 302 303 306 307 308 309 312 315 319 336 352 6 20
Height
5853 5852 5851 5850 5848 5847 5845 5843 5841 5839 5836 5833 5831 5828 5825 5821 5817 5812 5807 5802 5796 5790 5784 5776 5769 5761 5753 5745 5736 5728 5720 5712 5704 5696 5689 5681 5674 5667 5660 5654 5648 5642 5637 5632
5851 5850 5849 5848 5847 5845 5843 5841 5838 5836 5834 5831 5829 5825 5822 5817 5813 5808 5803 5798 5791 5785 5777 5770 5762 5754 5746 5737 5729 5720 5712 5704 5696 5688 5680 5672 5664 5657 5649 5643 5636 5630 5624 5619
5849 5848 5847 5846 5845 5843 5841 5839 5837 5834 5832 5828 5825 5822 5819 5814 5809 5804 5799 5792 5786 5779 5772 5764 5756 5747 5739 5730 5721 5713 5704 5696 5687 5679 5671 5663 5655 5647 5639 5632 5625 5618 5612 5607
5846 5846 5845 5846 5842 5841 5839 5837 5835 5832 5829 5825 5822 5819 5815 5810 5805 5799 5793 5787 5780 5773 5766 5757 5749 5740 5732 5723 5714 5705 5697 5688 5680 5671 5663 5655 5646 5638 5630 5622 5615 5608 5601 5596
5844 5842 5842 5841 5840 5838 5836 5833 5831 5828 5825 5821 5817 5814 5810 5805 5800 5794 5788 5782 5775 5767 5759 5751 5743 5734 5725 5716 5707 5698 5689 5681 5672 5664 5655 5647 5638 5629 5621 5613 5605 5598 5592 5586
5840 5839 5839 5839 5836 5834 5833 5830 5827 5824 5820 5816 5812 5809 5805 5800 5794 5789 5782 5776 5769 5761 5753 5745 5737 5728 5719 5710 5701 5692 5683 5674 5665 5656 5648 5639 5630 5622 5613 5605 5597 5590 5583 5576
5837 5836 5835 5834 5832 5830 5829 5826 5822 5819 5815 5812 5808 5805 5800 5794 5789 5783 5777 5770 5763 5755 5747 5739 5731 5722 5713 5704 5695 5686 5676 5667 5658 5650 5641 5632 5623 5614 5606 5598 5589 5582 5575 5568
5833 5832 5832 5829 5827 5826 5824 5820 5817 5813 5810 5807 5803 5799 5794 5789 5783 5778 5771 5764 5757 5749 5741 5733 5725 5716 5707 5698 5689 5680 5670 5661 5652 5644 5635 5626 5617 5608 5600 5591 5583 5575 5568 5561
5829 5829 5826 5824 5822 5820 5818 5815 5812 5809 5805 5802 5798 5793 5789 5784 5778 5772 5766 5759 5751 5744 5736 5727 5719 5711 5702 5693 5683 5674 5665 5656 5647 5638 5629 5620 5612 5603 5595 5586 5578 5569 5562 5556
5823 5822 5820 5819 5817 5815 5813 5810 5807 5804 5800 5796 5792 5788 5783 5778 5772 5766 5760 5753 5745 5738 5730 5722 5714 5705 5696 5687 5678 5669 5660 5651 5642 5633 5624 5615 5607 5599 5590 5582 5573 5565 5558 5552
5818 5817 5815 5813 5811 5809 5806 5804 5801 5798 5794 5790 5786 5782 5777 5772 5767 5761 5754 5747 5739 5732 5724 5716 5708 5700 5691 5682 5673 5664 5655 5646 5638 5629 5620 5611 5603 5595 5587 5578 5570 5563 5555 5549
5813 5811 5809 5807 5804 5802 5799 5797 5794 5792 5788 5784 5780 5776 5771 5766 5760 5754 5748 5741 5733 5726 5718 5711 5702 5694 5686 5677 5669 5660 5651 5643 5634 5625 5617 5608 5600 5592 5584 5576 5568 5560 5553 5546
5806 5804 5803 5800 5798 5795 5793 5790 5788 5785 5782 5778 5774 5769 5765 5759 5754 5748 5741 5734 5727 5720 5713 5705 5697 5689 5681 5673 5664 5656 5647 5639 5631 5622 5614 5606 5598 5590 5582 5574 5566 5558 5551 5545
5800 5798 5796 5794 5791 5789 5786 5784 5782 5779 5776 5772 5768 5763 5757 5752 5747 5741 5734 5728 5721 5714 5707 5700 5692 5684 5676 5668 5660 5652 5644 5636 5628 5619 5611 5603 5596 5588 5581 5573 5566 5558 5551 5544
5793 5791 5789 5787 5785 5782 5780 5777 5775 5772 5768 5764 5760 5755 5750 5745 5739 5733 5727 5721 5715 5708 5701 5694 5687 5680 5672 5664 5656 5648 5640 5632 5625 5617 5609 5602 5594 5587 5580 5573 5565 5558 5551 5544
5785 5784 5782 5780 5778 5775 5772 5770 5767 5764 5760 5756 5752 5747 5742 5737 5731 5725 5720 5714 5708 5702 5695 5688 5682 5675 5667 5660 5652 5645 5637 5629 5622 5615 5608 5600 5593 5586 5579 5572 5565 5558 5551 5545
5777 5775 5773 5771 5769 5766 5764 5761 5758 5755 5751 5747 5742 5738 5733 5728 5723 5718 5712 5707 5701 5695 5689 5682 5676 5669 5663 5656 5648 5641 5634 5626 5619 5613 5606 5599 5592 5585 5579 5572 5566 5559 5552 5546
5767 5765 5763 5762 5759 5757 5754 5752 5749 5745 5742 5738 5733 5729 5724 5720 5715 5710 5705 5699 5694 5688 5682 5676 5670 5664 5658 5651 5644 5637 5630 5623 5617 5610 5604 5598 5591 5585 5578 5572 5566 5560 5554 5548
5757 5755 5753 5751 5749 5746 5744 5741 5738 5735 5732 5728 5724 5720 5715 5711 5706 5701 5696 5691 5686 5680 5675 5669 5664 5658 5652 5646 5640 5633 5627 5620 5614 5608 5602 5596 5590 5584 5578 5572 5567 5561 5555 5550
5746 5744 5743 5741 5738 5735 5733 5730 5727 5724 5721 5717 5714 5710 5706 5701 5697 5692 5687 5682 5677 5672 5667 5662 5657 5652 5646 5641 5635 5629 5623 5617 5611 5606 5600 5595 5589 5584 5578 5573 5567 5562 5557 5551
5735 5733 5731 5728 5726 5724 5721 5718 5715 5712 5709 5706 5702 5698 5694 5690 5686 5682 5677 5673 5668 5663 5659 5654 5650 5645 5640 5635 5630 5624 5619 5614 5608 5603 5598 5594 5588 5583 5578 5573 5568 5563 5558 5553
5723 5721 5718 5716 5713 5711 5708 5705 5702 5699 5696 5693 5690 5686 5682 5678 5675 5671 5667 5663 5658 5654 5650 5646 5642 5638 5633 5629 5624 5619 5615 5610 5605 5601 5596 5592 5588 5583 5578 5573 5569 5564 5559 5555
5709 5707 5704 5701 5699 5696 5694 5691 5688 5685 5683 5680 5677 5674 5670 5666 5663 5659 5656 5652 5648 5644 5641 5637 5634 5630 5626 5622 5618 5614 5610 5606 5602 5598 5594 5590 5586 5582 5578 5574 5570 5565 5561 5557
5693 5691 5688 5685 5682 5680 5677 5675 5672 5670 5668 5665 5663 5660 5656 5653 5650 5647 5644 5641 5637 5634 5631 5628 5625 5622 5619 5615 5612 5608 5605 5601 5598 5594 5591 5588 5585 5581 5578 5574 5571 5567 5563 5559
5675 5673 5670 5668 5665 5663 5661 5658 5656 5654 5652 5650 5648 5645 5642 5639 5637 5634 5632 5629 5626 5623 5621 5619 5617 5614 5611 5608 5606 5603 5600 5597 5594 5591 5588 5585 5582 5580 5577 5574 5571 5568 5565 5562
5655 5654 5652 5649 5647 5645 5643 5641 5639 5638 5636 5634 5632 5630 5628 5626 5623 5621 5619 5617 5615 5613 5611 5609 5607 5605 5603 5601 5599 5597 5594 5592 5589 5587 5585 5582 5580 5578 5576 5574 5572 5569 5566 5564
5635 5633 5632 5630 5628 5626 5625 5623 5621 5620 5618 5617 5616 5615 5613 5612 5610 5608 5607 5605 5603 5602 5601 5599 5598 5597 5595 5594 5592 5591 5589 5586 5584 5583 5581 5579 5577 5576 5574 5573 5571 5569 5567 5566